Location: Unspecified
(0.0000°N, 0.0000°E)
Time: 13:58:01
(UTC+00:00)

Tiros 1 despin weight - Pass Details

Date: 06 October 2023
Orbit: 574 x 618 km, 48.2° (Epoch: 06 September)

Event Time Altitude Azimuth Distance (km) Brightness Sun altitude
Rises 14:15:52 0° 232° (SW) 2,976 ? 52.8°
Reaches altitude 10° 14:18:19 10° 239° (WSW) 2,067 ? 52.2°
Maximum altitude 14:22:49 41° 309° (NW) 945 ? 51.0°
Drops below altitude 10° 14:27:18 10° 19° (NNE) 2,052 ? 49.9°
Sets 14:29:44 0° 27° (NNE) 2,953 ? 49.3°
